DECAYED

TIANHUI 1-03 DEB, 41024 (Decayed)

Orbit data source: Space-Track

TIANHUI 1-03 DEB, 41024 was space debris in SSO originally from a launch on Mon, 26 Oct 2015 UTC launched from the Jiuquan Satellite Launch Center, China (JSC). Debris objects in space refer to the collection of defunct objects orbiting the Earth. Examples of debris include non-operational satellites, rocket bodies, and fragments generated from explosions, collisions, or faulty payload assembly.

Not visible in the next 10 days
Identifier
41024, 2015-061C
Orbit
Decayed
Last TLE update
10 months ago
Origin
Manufacturer
Unknown
Mission
Decayed spacecraft
Bus & Motor
Unknown
Mass
Unknown
Launch date (UTC)
2015-10-26 (10 years ago)
Launch vehicle
Unknown
Launch site
Jiuquan Satellite Launch Center, China (JSC)
Object type
Payload
Rocket body
Debris
Shape & HBR
Unknown
Radar Cross Section
Small (<0.1 m²)

Expand to show TLE details & history

TLE from 10 months ago
0 TIANHUI 1-03 DEB
1 41024U 15061C   24252.43804513  .02694476  51625-2  93504-2 0  9999
2 41024  97.2796 143.7149 0015917 264.4519  95.4939 15.90507132478636
Epoch: 2024-09-08T10:30Z
TLE epoch observation values (Epoch: 2024-09-08T10:30:47.099Z)
Latitude
-0.00002°
Longitude
-1.96322°
Altitude
305.087 km
Speed
7.724 km/s
True Right ascension
09h 34m 51s
True Declination
0° 00' 00"
Sunlit
Object was in daylight at epoch
Visualization orbit readout
Visualization observer readout
Orbital elements
Apogee altitude
308.356 km
Perigee altitude
287.104 km
Semi-major axis
6,675.867 km
Eccentricity
0.00159
Inclination
97.2796°
RAAN
143.7149°
Arg. of periapsis
264.4519°
True anomaly
Unknown
Mean anomaly
95.4939°
Eccentric anomaly
Unknown
Mean motion
3.97907 °/min
Orbital period
90.47 mins
BSTAR
0.0093504
Loading maneuver chart data...
Loading SW <> Apogee altitude chart data...
Loading historical data...
Loading historical data...
Loading historical data...
Loading historical data...
Loading historical data...
Loading historical data...
Loading historical data...
Other satellites on launch #61 in the year 2015 (2015-10-26 UTC)

TIANHUI 1-03 DEB Visibility

Observer location: undefined°, undefined°

This satellite is decayed
Span
Click to sort rows by Start time (UTC) header in descending order
Start Az.
Max El. time (UTC)
Max El. Az.
Max El.
End time (UTC)
End Az.
|